Location: Bambrugge
(50.9212°N, 3.9299°E)
Time: 05:13:58
(UTC+00:00)

SL-16 R/B - Pass Details

Date: 17 August 2024
Orbit: 842 x 845 km, 71.0° (Epoch: 16 September)

Event Time Altitude Azimuth Distance (km) Brightness Sun altitude
Exits shadow 21:19:39 22° 100° (E) 1,755 3.4 -18.3°
Drops below altitude 10° 21:23:49 10° 53° (NE) 2,473 4.6 -18.7°
Sets 21:26:45 0° 39° (NE) 3,414 5.5 -19.0°
